Regional Weather Roundup
Issued by NWS

Home | Current Version | Previous Version | Text Only | Print | Product List | Glossary On
Versions: 1 2 3 4 5 6 7 8 9 10 11 12 13 14 15 16 17 18 19 20 21 22 23 24 25 26 27 28
000
ASUS45 KPSR 220010
RWRAZ

ARIZONA HOURLY REGIONAL WEATHER ROUNDUP
NATIONAL WEATHER SERVICE PHOENIX AZ
500 PM MST MON AUG 21 2017

NOTE: FAIR INDICATES FEW OR NO CLOUDS BELOW 12,000 FEET WITH NO
SIGNIFICANT WEATHER AND/OR OBSTRUCTIONS TO VISIBILITY.

AZZ001>003-036-220100-
NORTHWEST ARIZONA

CITY           SKY/WX    TMP DP  RH WIND       PRES   REMARKS
BULLHEAD CITY  MOSUNNY   99  52  20 CALM      29.87F
KINGMAN        PTSUNNY   78  57  48 NE13      30.11F
6HR MIN TEMP:  66; 6HR MAX TEMP:  79; 6HR PCP:  0.06;

$$

AZZ004>008-015-016-018-220100-
NORTH CENTRAL ARIZONA

CITY           SKY/WX    TMP DP  RH WIND       PRES   REMARKS
GRAND CANYON   CLOUDY    66  57  72 CALM      30.33R
6HR MIN TEMP:  58; 6HR MAX TEMP:  80; 6HR PCP:  0.55;

WILLIAMS       PTSUNNY   68  54  60 W12       30.33S
PRESCOTT       PTSUNNY   77  51  40 N13       30.21F
6HR MIN TEMP:  72; 6HR MAX TEMP:  82; 6HR PCP: TRACE;

FLAGSTAFF      PTSUNNY   70  53  54 VRB3      30.33F
6HR MIN TEMP:  65; 6HR MAX TEMP:  76; 6HR PCP: TRACE;

PAYSON           N/A     84  46  26 VRB7      30.17F
PAGE           PTSUNNY   91  41  17 S5        30.07S
6HR MIN TEMP:  83; 6HR MAX TEMP:  93;

$$

AZZ009>014-017-220100-
NORTHEAST ARIZONA

CITY           SKY/WX    TMP DP  RH WIND       PRES   REMARKS
WINSLOW        SUNNY     89  43  20 NW6       30.12F
6HR MIN TEMP:  78; 6HR MAX TEMP:  91;

SAINT JOHNS    SUNNY     85  43  22 W5        30.18F
6HR MIN TEMP:  74; 6HR MAX TEMP:  86;

WINDOW ROCK    PTSUNNY   72  54  53 W3        30.27F
6HR MIN TEMP:  62; 6HR MAX TEMP:  79; 6HR PCP:  0.16;

SHOW LOW       MOSUNNY   73  54  49 SW7       30.26S
$$

AZZ540-542>544-546-548-220100-
GREATER PHOENIX AREA

CITY           SKY/WX    TMP DP  RH WIND       PRES   REMARKS
PHOENIX        MOSUNNY  102  45  14 SW10G17   29.85F
6HR MIN TEMP:  92; 6HR MAX TEMP: 104;

BUCKEYE        SUNNY    100  46  16 W8        29.86F
GLENDALE       MOSUNNY  102  46  15 S6G16     29.87
LUKE AFB       SUNNY    102  47  15 S6        29.84F
6HR MIN TEMP:  92; 6HR MAX TEMP: 103;

DEER VALLEY    SUNNY    100  52  19 W8        29.87F
6HR MIN TEMP:  91; 6HR MAX TEMP: 101;

SCOTTSDALE     SUNNY    100  50  18 W6        29.89F
6HR MIN TEMP:  92; 6HR MAX TEMP: 103;

MESA-FALCON      N/A    100  50  18 W9        29.88F
MESA-GATEWAY   MOSUNNY  100  52  19 NW7       29.89
CHANDLER       MOSUNNY  100  46  16 SW9       29.87F
$$

AZZ539-553-220100-
SOUTHWEST MARICOPA COUNTY AND PINAL COUNTY

CITY           SKY/WX    TMP DP  RH WIND       PRES   REMARKS
CASA GRANDE    SUNNY     99  53  21 VRB3      29.90F
6HR MIN TEMP:  91; 6HR MAX TEMP: 100;

GILA BEND      MOSUNNY  103  46  14 W9        29.84F
6HR MIN TEMP:  96; 6HR MAX TEMP: 104;

$$

AZZ503-504-507>509-220100-
SOUTHEAST ARIZONA

CITY           SKY/WX    TMP DP  RH WIND       PRES   REMARKS
TUCSON         SUNNY    N/A N/A N/A NE5       29.99F
DAVIS-MONTHAN  SUNNY     99  49  18 N7        29.97F
6HR MIN TEMP:  88; 6HR MAX TEMP: 100;

RYAN FIELD     SUNNY     97  48  19 N6        29.97F
NOGALES        MOSUNNY   90  52  27 W8        30.07F
6HR MIN TEMP:  82; 6HR MAX TEMP:  91;

SIERRA VISTA   PTSUNNY   86  51  29 SE7       30.15F
6HR MIN TEMP:  81; 6HR MAX TEMP:  88;

DOUGLAS        SUNNY     87  52  29 NW5       30.09F
6HR MIN TEMP:  78; 6HR MAX TEMP:  89;

SAFFORD        SUNNY     92  49  22 VRB3      29.99F
6HR MIN TEMP:  82; 6HR MAX TEMP:  94;

$$

AZZ532-220100-
SOUTHWEST ARIZONA

CITY           SKY/WX    TMP DP  RH WIND       PRES   REMARKS
YUMA           SUNNY    103  53  19 CALM      29.80F HX 101
6HR MIN TEMP:  93; 6HR MAX TEMP: 105;

$$

CAZ041-043-047-048-061-525>527-560>570-220100-
SOUTHERN CALIFORNIA

CITY           SKY/WX    TMP DP  RH WIND       PRES   REMARKS
DOWNTOWN L.A.  SUNNY     76  61  59 VRB3      29.96F
6HR MIN TEMP:  75; 6HR MAX TEMP:  82;

L.A. AIRPORT   MOSUNNY   73  62  68 W15       29.97F
6HR MIN TEMP:  71; 6HR MAX TEMP:  76;

SAN DIEGO      MOSUNNY   76  62  62 W12       29.98F
6HR MIN TEMP:  72; 6HR MAX TEMP:  78;

BURBANK        SUNNY     80  56  43 S10       29.95F
6HR MIN TEMP:  72; 6HR MAX TEMP:  83;

ONTARIO        MOSUNNY   87  57  35 W13G22    29.94F
6HR MIN TEMP:  71; 6HR MAX TEMP:  90;

RIVERSIDE      SUNNY     86  59  39 W15       29.94S
6HR MIN TEMP:  69; 6HR MAX TEMP:  90;

PALM SPRINGS   SUNNY    105  44  12 NW16      29.83F HX 100
6HR MIN TEMP:  94; 6HR MAX TEMP: 107;

EL CENTRO NAS  MOSUNNY  103  39  11 SE3       29.80F
6HR MIN TEMP:  94; 6HR MAX TEMP: 105;

IMPERIAL       MOSUNNY  105  46  13 VRB5      29.78F HX 101
6HR MIN TEMP:  93; 6HR MAX TEMP: 105;

BLYTHE         SUNNY    104  49  15 E8        29.82F HX 101
6HR MIN TEMP:  93; 6HR MAX TEMP: 105;

$$

NVZ020-UTZ003-220100-
SOUTHERN NEVADA-UTAH

CITY           SKY/WX    TMP DP  RH WIND       PRES   REMARKS
LAS VEGAS      PTSUNNY   91  51  25 NE5       30.01S
6HR MIN TEMP:  79; 6HR MAX TEMP:  93;

SALT LAKE CITY MOSUNNY   92  44  19 NW8G16    30.08F
6HR MIN TEMP:  82; 6HR MAX TEMP:  93;

$$

NMZ009-TXZ055-220100-
NEW MEXICO-WEST TEXAS

CITY           SKY/WX    TMP DP  RH WIND       PRES   REMARKS
ALBUQUERQUE    PTSUNNY   77  56  48 VRB3      30.19F
6HR MIN TEMP:  67; 6HR MAX TEMP:  78;

EL PASO        MOSUNNY   86  62  44 CALM      30.08F
6HR MIN TEMP:  76; 6HR MAX TEMP:  88;

$$


........................KEY........................
SKY/WX - SKY CONDITION/WEATHER
TMP    - TEMPERATURE IN FAHRENHEIT
DP     - DEW POINT IN FAHRENHEIT
RH     - RELATIVE HUMIDITY IN PERCENT
WIND   - DIRECTION AND SPEED IN MILES PER HOUR (MPH)
VRB    - VARIABLE WIND DIRECTION
PRES   - MEAN SEA LEVEL PRESSURE IN INCHES OF MERCURY
         F - FALLING PRESSURE   R - RISING PRESSURE
         S - STEADY PRESSURE
VSB    - VISIBILITY IN MILES
HX     - HEAT INDEX IN FAHRENHEIT
WCI    - WIND CHILL INDEX IN FAHRENHEIT
TC     - TEMPERATURE IN CELSIUS WHICH IS ALSO KNOWN AS
         TEMPERATURE IN CENTIGRADE
AFB    - AIR FORCE BASE
         LUKE AFB IS LUKE AIR FORCE BASE
         DAVIS-MONTHAN IS DAVIS-MONTHAN AIR FORCE BASE
NAS    - NAVAL AIR STATION
         EL CENTRO NAS IS EL CENTRO NAVAL AIR STATION
N/A    - NOT AVAILABLE





USA.gov is the U.S. government's official web portal to all federal, state and local government web resources and services.